Regional Weather Roundup
Issued by NWS

Home | Current Version | Previous Version | Text Only | Print | Product List | Glossary On
Versions: 1 2 3 4 5 6 7 8 9 10 11 12 13 14 15 16 17 18 19 20 21 22 23 24 25 26 27 28 29 30 31 32 33 34 35 36 37 38 39 40 41 42 43 44 45 46 47 48 49 50
000
ASUS44 KMEG 240710
RWRTN
TENNESSEE HOURLY STATE WEATHER ROUNDUP
NATIONAL WEATHER SERVICE MEMPHIS TN
100 AM CST SAT FEB 24 2018

TNZ002-004-019-021-049-052-054-088>092-240800-
WEST TENNESSEE

CITY           SKY/WX    TMP DP  RH WIND       PRES   REMARKS
MEMPHIS INTL   LGT RAIN  59  59 100 E7        30.08F FOG
NWS MEMPHIS      N/A     58 N/A N/A MISG        N/A
JACKSON        LGT RAIN  60  60 100 CALM      30.11F FOG
DYERSBURG      CLOUDY    55  55 100 E3        30.11F
COVINGTON      CLOUDY    57  55  94 CALM      30.11F
UNION CITY     CLOUDY    55  55 100 CALM      30.11F FOG
BOLIVAR        CLOUDY    63  61  94 CALM      30.10S FOG
PARIS          CLOUDY    57  57 100 E5        30.12F FOG
LEXINGTON      CLOUDY    61  61 100 SE3       30.11F FOG
SELMER         CLOUDY    63  63 100 SE5       30.11F FOG
SAVANNAH       CLOUDY    63  63 100 CALM      30.11F FOG
$$

TNZ008-025-027-028-033-062-065-066-240800-
NORTH MIDDLE TENNESSEE

CITY           SKY/WX    TMP DP  RH WIND       PRES   REMARKS
NASHVILLE      CLOUDY    60  57  89 CALM      30.14F
PORTLAND       CLOUDY    57  57 100 CALM      30.13F FOG
CLARKSVILLE    CLOUDY    57  54  89 CALM      30.13F
SMYRNA         LGT RAIN  60  58  92 CALM      30.15F
COOKEVILLE     CLOUDY    63  55  77 CALM      30.15F
GALLATIN       CLOUDY    61  59  94 CALM      30.15F
CROSSVILLE     MOCLDY    65  55  70 VRB5      30.20F
$$

TNZ061-075-076-078-094-096-097-240800-
SOUTH MIDDLE TENNESSEE

CITY           SKY/WX    TMP DP  RH WIND       PRES   REMARKS
FAYETTEVILLE   CLOUDY    63  59  88 SW6       30.16R HAZE
TULLAHOMA      CLOUDY    63  57  82 CALM      30.15F
WINCHESTER     PTCLDY    63  55  77 CALM      30.15F
MCMINNVILLE    CLOUDY    63  55  77 CALM      30.15F
COLUMBIA       CLOUDY    63  63 100 CALM      30.13S FOG
SHELBYVILLE    CLOUDY    63  55  77 CALM      30.15F
$$

TNZ017-018-042-046-047-240800-
NORTHEAST TENNESSEE

CITY           SKY/WX    TMP DP  RH WIND       PRES   REMARKS
TRI CITIES     FAIR      56  53  90 N3        30.23S
ELIZABETHTON   MOCLDY    55  52  88 CALM      30.24F
$$

TNZ012-013-036-069-073-074-240800-
CENTRAL EAST TENNESSEE

CITY           SKY/WX    TMP DP  RH WIND       PRES   REMARKS
KNOXVILLE      CLOUDY    65  55  70 CALM      30.17F
OAK RIDGE      CLOUDY    64  58  80 CALM      30.20F
DOWNTOWN KNOXV MOCLDY    59  55  88 CALM      30.18F
GATLINBURG     PTCLDY    59  54  82 CALM      30.19S
JACKSBORO      MOCLDY    70  57  64 S9G15     30.21F
$$

TNZ083-085-099-240800-
SOUTHEAST TENNESSEE

CITY           SKY/WX    TMP DP  RH WIND       PRES   REMARKS
CHATTANOOGA    FAIR      68  57  68 SE3       30.18F
$$

SKY/WX REPORTED AS FAIR MEANS FEW OR NO CLOUDS BELOW
12 THOUSAND FEET.





USA.gov is the U.S. government's official web portal to all federal, state and local government web resources and services.